TimePST,TemperatureF,Dew PointF,Humidity,Sea Level PressureIn,VisibilityMPH,Wind Direction,Wind SpeedMPH,Gust SpeedMPH,PrecipitationIn,Events,Conditions,WindDirDegrees,DateUTC
12:53 AM,34.0,30.0,85,30.26,10.0,NW,3.5,-,N/A,,Clear,310,2013-11-14 08:53:00
1:53 AM,36.0,32.0,86,30.24,10.0,WNW,4.6,-,N/A,,Clear,300,2013-11-14 09:53:00
2:53 AM,34.0,30.0,85,30.22,10.0,WNW,3.5,-,N/A,,Clear,300,2013-11-14 10:53:00
3:53 AM,33.1,30.9,92,30.20,9.0,Calm,Calm,-,N/A,,Clear,0,2013-11-14 11:53:00
4:53 AM,34.0,30.9,89,30.17,9.0,NNW,3.5,-,N/A,,Clear,340,2013-11-14 12:53:00
5:53 AM,35.1,32.0,89,30.15,10.0,Calm,Calm,-,N/A,,Clear,0,2013-11-14 13:53:00
6:53 AM,35.1,32.0,89,30.13,10.0,Calm,Calm,-,N/A,,Clear,0,2013-11-14 14:53:00
7:53 AM,36.0,33.1,89,30.13,10.0,WSW,3.5,-,N/A,,Unknown,240,2013-11-14 15:53:00
8:53 AM,41.0,36.0,82,30.12,9.0,WNW,6.9,-,N/A,,Clear,290,2013-11-14 16:53:00
9:53 AM,46.9,37.0,68,30.11,10.0,Calm,Calm,-,N/A,,Clear,0,2013-11-14 17:53:00
10:53 AM,48.0,36.0,63,30.09,10.0,Calm,Calm,-,N/A,,Clear,0,2013-11-14 18:53:00
11:53 AM,48.9,37.0,64,30.07,10.0,Calm,Calm,-,N/A,,Clear,0,2013-11-14 19:53:00
12:53 PM,53.1,35.1,50,30.04,10.0,Calm,Calm,-,N/A,,Clear,0,2013-11-14 20:53:00
1:53 PM,55.0,35.1,47,30.01,10.0,SSW,5.8,-,N/A,,Clear,210,2013-11-14 21:53:00
2:53 PM,55.0,36.0,49,30.01,10.0,West,4.6,-,N/A,,Scattered Clouds,260,2013-11-14 22:53:00
3:53 PM,54.0,35.1,49,30.02,10.0,Calm,Calm,-,N/A,,Scattered Clouds,0,2013-11-14 23:53:00
4:53 PM,46.0,35.1,66,30.03,10.0,Calm,Calm,-,N/A,,Scattered Clouds,0,2013-11-15 00:53:00
5:53 PM,39.9,30.9,70,30.03,10.0,SSW,4.6,-,N/A,,Scattered Clouds,210,2013-11-15 01:53:00
6:53 PM,39.0,30.0,70,30.03,10.0,Calm,Calm,-,N/A,,Clear,0,2013-11-15 02:53:00
7:53 PM,33.1,27.0,78,30.03,10.0,Calm,Calm,-,N/A,,Clear,0,2013-11-15 03:53:00
8:53 PM,33.1,27.0,78,30.03,10.0,NW,8.1,-,N/A,,Clear,320,2013-11-15 04:53:00
9:53 PM,33.1,27.0,78,30.02,10.0,SSW,4.6,-,N/A,,Clear,200,2013-11-15 05:53:00
10:53 PM,34.0,28.9,82,30.00,10.0,Calm,Calm,-,N/A,,Clear,0,2013-11-15 06:53:00
11:53 PM,32.0,27.0,82,30.01,10.0,Variable,3.5,-,N/A,,Clear,0,2013-11-15 07:53:00